Regional Weather Roundup
Issued by NWS

Home | Current Version | Previous Version | Text Only | Print | Product List | Glossary On
Versions: 1 2 3 4 5 6 7 8 9 10 11 12 13 14 15 16 17 18 19 20 21 22 23 24 25 26 27 28 29 30 31 32 33 34 35 36 37 38 39 40 41 42 43 44 45 46 47 48 49 50
000
ASUS46 KLOX 282213
RWRCA

SOUTHERN CALIFORNIA WEATHER ROUNDUP
NATIONAL WEATHER SERVICE OXNARD CALIFORNIA
300 PM PDT SAT MAY 28 2016

NOTE: "FAIR" INDICATES FEW OR NO CLOUDS BELOW 12,000 FEET WITH NO
SIGNIFICANT WEATHER AND/OR OBSTRUCTIONS TO VISIBILITY.

  -  STATIONS PRECEEDED BY AN ASTERISK (*) ARE NOT NWS OR FAA
     STATIONS AND ARE NOT SUBJECT TO NWS AND FAA QUALITY CONTROL.

CAZ041-042-087-282300-
LA AND ORANGE COUNTY COASTAL AREAS


CITY           SKY/WX    TMP DP  RH WIND       PRES   REMARKS
L.A. DOWNTOWN  SUNNY     70  56  61 VRB3      29.87S
L.A. AIRPORT   PTSUNNY   66  56  70 W16       29.88F
LONG BEACH     SUNNY     68  56  65 S9        29.88F

CITY           SKY/WX    TMP DP  RH WIND       PRES   REMARKS
AVALON           N/A     64 N/A N/A MISG        N/A
FULLERTON      SUNNY     74  55  51 VRB7      29.86F
*GETTY CENTER    N/A     66  54  63 SW12G18     N/A
HAWTHORNE      MOSUNNY   67  55  65 W10       29.88F
*LEO CARRILLO    N/A     63  56  79 SW6         N/A
*LOS ALAMITOS  MOSUNNY   70  56  61 SW13      29.88S
*REDONDO BEACH   N/A     67  56  67 W6        29.88F
SANTA ANA      PTSUNNY   68  55  63 SW9G20    29.88S
STA MONICA APT MOSUNNY   65  55  70 SW10      29.89S
*STA MON PIER    N/A     60  57  89 W12       29.82F
TORRANCE       MOSUNNY   70  59  68 W10       29.89S
*UCLA            N/A     64  55  72 SW13      29.85F

$$

CAZ547-548-048-282300-
LA COUNTY VALLEYS AND INLAND EMPIRE


CITY           SKY/WX    TMP DP  RH WIND       PRES   REMARKS
BURBANK        SUNNY     74  56  53 S8G16     29.85F
VAN NUYS       SUNNY     77  55  46 SE13      29.84F

CITY           SKY/WX    TMP DP  RH WIND       PRES   REMARKS
CORONA AIRPORT CLEAR     77  57  50 W18       29.84F
*CHATSWORTH      N/A     79  58  48 W5        29.84F
CHINO          MOSUNNY   81  52  36 W9G18     29.85F
*CLAREMONT       N/A     75  53  45 S9          N/A
MARCH AFB      SUNNY     79  51  37 NW10      29.84F
*NORTHRIDGE      N/A     77  50  38 SE3G9       N/A
ONTARIO        PTSUNNY   78  51  38 W10       29.84F
*PASADENA        N/A     77  59  53 E3          N/A
POMONA         SUNNY     75  54  46 W14G20    29.88F
RIVERSIDE      SUNNY     81  52  36 W9G21     29.83F
SAN BERNARDINO MOSUNNY   82  46  28 W8        29.84F HAZE
*SAN RAFAEL HI   N/A     78  54  43 NE8         N/A
*SAUGUS          N/A     76  52  42 S14         N/A
*WHITEMAN AP   SUNNY     73  55  53 SE5       29.88
*WHITTIER HILL   N/A     74  56  53 SW9         N/A
*WOODLAND HILL   N/A     79  55  44 SE6         N/A

$$

CAZ054-055-282300-
LA AND SAN BERNARDINO COUNTY MOUNTAINS


CITY           SKY/WX    TMP DP  RH WIND       PRES   REMARKS
*ACTON           N/A     84  46  25 W12         N/A
*BIG BEAR AIRP MOCLDY    64  30  27 S7        30.04F
*BIG PINES       N/A     60  39  45 S2          N/A
*CHILAO          N/A     68  35  30 SE16G28     N/A
SANDBERG       MOSUNNY   77  39  25 S13G22    29.97F
*WARM SPRINGS    N/A     81  60  48 CALM        N/A

$$

CAZ028-029-059-060-099-282300-
ANTELOPE VALLEY AND SURROUNDING AREAS


CITY           SKY/WX    TMP DP  RH WIND       PRES   REMARKS
LANCASTER      MOSUNNY   87  41  19 SW20G26   29.82F
PALMDALE       SUNNY     85  39  19 SW18G24   29.83F
*POPPY PARK      N/A     83  45  25 SW21G37     N/A

CITY           SKY/WX    TMP DP  RH WIND       PRES   REMARKS
29 PALMS       MOSUNNY   89  26  10 SE17      29.86F
BARSTOW/DAGGET SUNNY     91  27  10 E9G22     29.77F
BISHOP         CLOUDY    80  34  19 W20       29.90R
CHINA LAKE     MOSUNNY   89  31  12 VRB3      29.79F
EDWARDS AFB    PTSUNNY   87  33  14 SE7       29.79F
MOJAVE         SUNNY     84  32  15 W7        29.85F
NEEDLES        SUNNY     97  26   8 SW10      29.74F HX  91
VICTORVILLE    MOSUNNY   84  28  13 CALM      29.84F

$$

CAZ039-040-282300-
VENTURA AND SANTA BARBARA COUNTY COAST


CITY           SKY/WX    TMP DP  RH WIND       PRES   REMARKS
CAMARILLO      CLOUDY    64  54  69 SW12G21   29.89F
NWS OXNARD       N/A     66  55  67 SW5       29.89S
OXNARD AIRPORT CLOUDY    63  55  75 SW10      29.90S
*POINT MUGU    CLOUDY    63  55  75 SW12      29.90F
SBA APT/GOLETA MOSUNNY   64  56  75 S9        29.89F
*SANTA BARBARA   N/A     70  55  59 NW5       29.97S
*VENTURA         N/A     64  56  76 SW7       29.87F

$$

CAZ044-045-282300-
VENTURA COUNTY VALLEYS


CITY           SKY/WX    TMP DP  RH WIND       PRES   REMARKS
*SIMI VALLEY     N/A     71  58  62 SW2       29.82F
*WESTLAKE VILL   N/A     73  58  59 CALM      29.85S
*OJAI            N/A     60  52  75 CALM      29.81S
*FILLMORE        N/A     74  59  58 W5        29.75F

$$

CAZ053-282300-
VENTURA COUNTY MOUNTAINS


CITY           SKY/WX    TMP DP  RH WIND       PRES   REMARKS
*ROSE VALLEY     N/A     75  48  38 MISG        N/A

$$

CAZ034-035-036-282300-
CENTRAL COAST AND SANTA YNEZ VALLEY


CITY           SKY/WX    TMP DP  RH WIND       PRES   REMARKS
SAN LUIS OBISP SUNNY     69  55  60 SW12      29.88S
SANTA MARIA    SUNNY     71  55  56 N16       29.88S

CITY           SKY/WX    TMP DP  RH WIND       PRES   REMARKS
*CAL POLY SLO    N/A     70  57  64 W9          N/A
*LOMPOC        SUNNY     73  56  54 W9G17     29.86S
*PISMO BEACH     N/A     60  56  88 SW9       29.92R
*SANTA YNEZ    FAIR      79  50  36 W13G18    29.85S

$$

CAZ037-038-051-282300-
SAN LUIS OBISPO COUNTY INTERIOR AND CUYAMA VALLEY


CITY           SKY/WX    TMP DP  RH WIND       PRES   REMARKS
*CUYAMA          N/A     82  44  25 NE5       29.74S
PASO ROBLES    SUNNY     79  52  38 SW21G29   29.80S

$$

CAZ032-033-061-282300-
SOUTHERN DESERTS


CITY           SKY/WX    TMP DP  RH WIND       PRES   REMARKS
BLYTHE         SUNNY     96  35  11 S16G30    29.73F HX  91
IMPERIAL       SUNNY     95  43  16 MISG      29.70F HX  91
PALM SPRINGS   SUNNY     93  31  11 SE12      29.76F
THERMAL        SUNNY     95  29   9 SE14G21   29.71F

$$

ELSEWHERE ACROSS THE WESTERN UNITED STATES AND MEXICO


CITY           SKY/WX    TMP DP  RH WIND       PRES   REMARKS
DEATH VALLEY,    N/A    103  38  11 S6          N/A  HX  97
DENVER, CO     PTSUNNY   72  41  32 SE10      30.01S
GRAND CANYON,  CLOUDY    68  28  22 NW6       30.10S
HONOLULU, HI   MOSUNNY   82  72  69 S10       30.02F
KAHULUI, MAUI  MOSUNNY   88  66  48 NE18      30.00F HX  90
LAKE TAHOE, CA MOSUNNY   64  34  32 N9        30.04S
LAS VEGAS, NV  PTSUNNY   90  27  10 SE7       29.77F
MAMMOTH LAKES, LGT RAIN  49  35  58 E5G24     30.15F
MEXICO CITY, M PTSUNNY   79  45  29 NE12      30.23F
PHOENIX, AZ    MOSUNNY   96  27   8 SW13G18   29.74F HX  90
PORTLAND, OR   PTSUNNY   71  40  32 N6        30.05F
RENO, NV       PTSUNNY   76  30  18 VRB3      29.95F
SALT LAKE CITY MOSUNNY   74  40  29 N15       30.01S
SAN DIEGO, CA  PTSUNNY   66  56  70 W10       29.91S
SAN FRANCISCO, PTSUNNY   78  54  43 W22       29.83F
SAN JOSE, CA   PTSUNNY   87  44  22 NW12      29.80F
SEATTLE, WA    CLOUDY    60  48  64 SW12      30.06R
TIJUANA, MEX   PTSUNNY   68  54  60 W8        29.92S

$$

STATION/POSITION TIME  TEMP    WIND        PRES    VSBY  WAVE
                       AIR SEA DIR/SP/G                  HT/PER
                 (UTC) (F)     (DEG/KT/KT) (MB)    (MI)  (FT/S)
POINT ARGUELLO B NOT AVBL
WEST SANTA BARBA 2150   56 55  210/  6/  8 1012.2F         5/11
POINT CONCEPTION NOT AVBL
EAST SANTA BARBA 2100   59 61   50/  4/  6 1013.0F
SANTA MONICA BAY 2150   58 64  220/ 10/ 12 1012.4F         3/15



USA.gov is the U.S. government's official web portal to all federal, state and local government web resources and services.